Location: *
(50.3440°N, 18.6237°E)
Time: 05:16:50
(UTC+00:00)

CSL-04 Rocket - Visible Passes

Search period start: 17 April 2021 00:00
Search period end: 27 April 2021 00:00
Orbit: 805 x 861 km, 98.9° (Epoch: 16 April)

Date Brightness Start Highest point End Pass type
(mag) Time Alt. Az. Time Alt. Az. Time Alt. Az.
17 Apr 5.9 19:05:43 10° SW 19:09:55 24° W 19:14:08 10° NW visible
18 Apr 5.4 18:48:06 10° SSW 18:52:47 32° W 18:57:30 10° NNW visible
19 Apr 4.9 18:30:41 10° S 18:35:42 43° W 18:40:45 10° NNW visible
20 Apr 4.3 18:13:27 10° S 18:18:40 59° WSW 18:23:54 10° NNW visible
21 Apr 6.4 19:40:29 10° WSW 19:42:52 13° W 19:45:15 10° WNW visible
22 Apr 6.2 19:22:06 10° SW 19:25:39 18° W 19:29:13 10° NW visible
23 Apr 5.8 19:04:13 10° SSW 19:08:29 24° W 19:12:46 10° NW visible
24 Apr 5.4 18:46:37 10° SSW 18:51:21 33° W 18:56:07 10° NNW visible
25 Apr 4.8 18:29:14 10° S 18:34:16 45° W 18:39:21 10° NNW visible
